Location: Dos Palmas
(32.4468°N, 116.8732°W)
Time: 00:31:54
(UTC+00:00)

Lacrosse 4 Rocket - Pass Details

Date: 20 June 2021
Orbit: 543 x 614 km, 68.0° (Epoch: 01 August)

Event Time Altitude Azimuth Distance (km) Brightness Sun altitude
Rises 10:52:14 0° 324° (NW) 2,716 5.0 -19.1°
Reaches altitude 10° 10:54:36 10° 314° (NW) 1,813 4.0 -18.7°
Enters shadow 10:57:12 27° 280° (W) 1,052 2.4 -18.3°
